LYRA-4 (64691 NORAD) Tracking and Keplerian Element Data

This shows tracking and keplerian element data for the satellite.

Feedback or suggestion? Click here.




ElementValue
Catalog64691
NameLYRA-4
Epoch Orbit2572
Epoch Day354.19292033
Epoch Year2025
RAAN156.4954
Inclination95.9794
Eccentricity0.0014436
Argument of Perigee85.8424
Mean Anonmoly274.4438
Mean Motion14.71911117
Decay Rate9.51E-06
L11 64691U 25140A 25354.19292033 .00000951 00000+0 15619-3 0 9995
L22 64691 95.9794 156.4954 0014436 85.8424 274.4438 14.71911117 25725



Live tracking and technical data element details for LYRA-4 (NORAD 64691). LYRA-4 can be tracked NOW for your location showing map with azimuth and elevation plus other details from your city location.







IsCatalogInMostPopularTable: catalog: 64691, numindb: 7
Update: records affected: 1



GetName: 64691 LYRA-4

Hit Count: updated at: Mon, 20 Apr 2026 10:23:16 GMT